Tiempo cada hora Dabrowiec

Hoy, 1 Diciembre, Martes

Tiempo Temperatura Precipitaciones Viento Presión Humedad
00:00 -4°C° 0 mm 2 mps 735 mmHg 81%
01:00 -4°C° 0 mm 2 mps 735 mmHg 78%
02:00 -4°C° 0 mm 2 mps 735 mmHg 77%
03:00 -4°C° 0 mm 2 mps 735 mmHg 75%
04:00 -4°C° 0 mm 2 mps 735 mmHg 73%
05:00 -4°C° 0 mm 2 mps 734 mmHg 74%
06:00 -4°C° 0 mm 2 mps 734 mmHg 74%
07:00 -4°C° 0 mm 2 mps 734 mmHg 74%
08:00 -3°C° 0 mm 2 mps 734 mmHg 70%
09:00 -3°C° 0 mm 2 mps 735 mmHg 66%
10:00 -2°C° 0 mm 2 mps 735 mmHg 62%
11:00 -1°C° 0 mm 2 mps 735 mmHg 60%
12:00 -1°C° 0 mm 2 mps 734 mmHg 57%
13:00 +2°C° 0 mm 1 mps 734 mmHg 55%
14:00 +1°C° 0 mm 1 mps 734 mmHg 61%
15:00 0°C° 0 mm 1 mps 734 mmHg 66%
16:00 -1°C° 0 mm 1 mps 734 mmHg 72%
17:00 -1°C° 0 mm 1 mps 734 mmHg 74%
18:00 -2°C° 0 mm 1 mps 735 mmHg 77%
19:00 -2°C° 0 mm 1 mps 735 mmHg 79%
20:00 -2°C° 0 mm 1 mps 735 mmHg 80%
21:00 -2°C° 0 mm 1 mps 735 mmHg 81%
22:00 -2°C° 0 mm 1 mps 735 mmHg 82%
23:00 -2°C° 0 mm 1 mps 736 mmHg 83%

Mañana, 2 Diciembre, Miércoles

Tiempo Temperatura Precipitaciones Viento Presión Humedad
00:00 -3°C° 0 mm 1 mps 736 mmHg 83%
01:00 -3°C° 0 mm 1 mps 736 mmHg 84%
02:00 -3°C° 0 mm 1 mps 736 mmHg 84%
03:00 -3°C° 0 mm 1 mps 735 mmHg 85%
04:00 -3°C° 0 mm 1 mps 735 mmHg 86%
05:00 -5°C° 0 mm 2 mps 735 mmHg 86%
06:00 -6°C° 0 mm 2 mps 735 mmHg 86%
07:00 -6°C° 0 mm 2 mps 735 mmHg 86%
08:00 -5°C° 0 mm 2 mps 735 mmHg 81%
09:00 -4°C° 0 mm 2 mps 735 mmHg 76%
10:00 -5°C° 0 mm 3 mps 735 mmHg 71%
11:00 -4°C° 0 mm 3 mps 734 mmHg 67%
12:00 -2°C° 0 mm 3 mps 734 mmHg 63%
13:00 -2°C° 0 mm 3 mps 734 mmHg 59%
14:00 -2°C° 0 mm 2 mps 734 mmHg 63%
15:00 -3°C° 0 mm 2 mps 733 mmHg 67%
16:00 -4°C° 0 mm 2 mps 733 mmHg 72%
17:00 -4°C° 0 mm 2 mps 733 mmHg 75%
18:00 -5°C° 0 mm 3 mps 733 mmHg 78%
19:00 -6°C° 0 mm 3 mps 732 mmHg 80%
20:00 -6°C° 0 mm 3 mps 732 mmHg 81%
21:00 -5°C° 0 mm 2 mps 732 mmHg 81%
22:00 -5°C° 0 mm 2 mps 732 mmHg 81%
23:00 -5°C° 0 mm 2 mps 731 mmHg 78%

Pasado mañana, 3 Diciembre, Jueves

Tiempo Temperatura Precipitaciones Viento Presión Humedad
00:00 -5°C° 0 mm 2 mps 731 mmHg 75%
01:00 -5°C° 0 mm 2 mps 731 mmHg 72%
02:00 -5°C° 0 mm 2 mps 730 mmHg 70%
03:00 -5°C° 0 mm 2 mps 730 mmHg 67%
04:00 -5°C° 0 mm 2 mps 730 mmHg 65%
05:00 -5°C° 0 mm 2 mps 729 mmHg 63%
06:00 -5°C° 0 mm 2 mps 729 mmHg 62%
07:00 -5°C° 0 mm 2 mps 729 mmHg 60%
08:00 -4°C° 0 mm 2 mps 728 mmHg 56%
09:00 -3°C° 0 mm 2 mps 728 mmHg 53%
10:00 -2°C° 0 mm 2 mps 728 mmHg 50%
11:00 -2°C° 0 mm 2 mps 727 mmHg 48%
12:00 -1°C° 0 mm 3 mps 727 mmHg 47%
13:00 0°C° 0 mm 3 mps 727 mmHg 46%
14:00 0°C° 0 mm 3 mps 726 mmHg 48%
15:00 -1°C° 0 mm 3 mps 726 mmHg 50%
16:00 -1°C° 0 mm 3 mps 725 mmHg 52%
17:00 -1°C° 0 mm 3 mps 725 mmHg 55%
18:00 -1°C° 0 mm 3 mps 725 mmHg 57%
19:00 -1°C° 0 mm 3 mps 724 mmHg 60%
20:00 0°C° 0 mm 3 mps 724 mmHg 60%
21:00 0°C° 0 mm 3 mps 724 mmHg 60%
22:00 0°C° 0 mm 3 mps 724 mmHg 61%
23:00 0°C° 0 mm 3 mps 723 mmHg 61%

4 Diciembre, Viernes

Tiempo Temperatura Precipitaciones Viento Presión Humedad
00:00 -1°C° 0 mm 4 mps 723 mmHg 61%
01:00 -1°C° 0 mm 4 mps 722 mmHg 62%
02:00 -1°C° 0 mm 4 mps 722 mmHg 61%
03:00 0°C° 0 mm 5 mps 721 mmHg 60%
04:00 0°C° 0 mm 5 mps 721 mmHg 59%
05:00 0°C° 0 mm 5 mps 721 mmHg 60%
06:00 0°C° 0 mm 5 mps 720 mmHg 62%
07:00 0°C° 0 mm 5 mps 720 mmHg 63%
08:00 0°C° 0 mm 5 mps 720 mmHg 62%
09:00 +1°C° 0 mm 5 mps 720 mmHg 61%
10:00 +1°C° 0 mm 5 mps 720 mmHg 60%
11:00 +2°C° 0 mm 5 mps 720 mmHg 62%
12:00 +2°C° 0 mm 5 mps 720 mmHg 63%
13:00 +3°C° 0 mm 5 mps 719 mmHg 65%
14:00 +3°C° 0 mm 6 mps 719 mmHg 70%
15:00 +2°C° 0 mm 6 mps 719 mmHg 76%
16:00 +2°C° 0 mm 6 mps 719 mmHg 81%
17:00 +1°C° 0 mm 6 mps 719 mmHg 83%
18:00 +1°C° 0 mm 5 mps 719 mmHg 85%
19:00 +1°C° 0 mm 5 mps 719 mmHg 86%
20:00 +1°C° 0 mm 5 mps 720 mmHg 85%
21:00 +1°C° 0 mm 5 mps 720 mmHg 84%
22:00 +1°C° 0 mm 5 mps 720 mmHg 82%
23:00 +1°C° 0 mm 5 mps 720 mmHg 83%

5 Diciembre, Sábado

Tiempo Temperatura Precipitaciones Viento Presión Humedad
00:00 +1°C° 0 mm 5 mps 720 mmHg 84%
01:00 +1°C° 0 mm 5 mps 720 mmHg 84%
02:00 +1°C° 0 mm 5 mps 720 mmHg 84%
03:00 +1°C° 0 mm 5 mps 720 mmHg 83%
04:00 +1°C° 0 mm 5 mps 720 mmHg 83%
05:00 +1°C° 0 mm 5 mps 720 mmHg 83%
06:00 +1°C° 0 mm 6 mps 720 mmHg 83%
07:00 +1°C° 0 mm 6 mps 721 mmHg 83%
08:00 +2°C° 0 mm 6 mps 721 mmHg 81%
09:00 +3°C° 0 mm 6 mps 721 mmHg 78%
10:00 +4°C° 0 mm 6 mps 721 mmHg 75%
11:00 +5°C° 0 mm 6 mps 721 mmHg 73%
12:00 +5°C° 0 mm 6 mps 721 mmHg 71%
13:00 +7°C° 0 mm 6 mps 721 mmHg 69%
14:00 +5°C° 0 mm 6 mps 721 mmHg 71%
15:00 +6°C° 0 mm 5 mps 721 mmHg 72%
16:00 +5°C° 0 mm 5 mps 721 mmHg 74%
17:00 +5°C° 0 mm 5 mps 722 mmHg 75%
18:00 +5°C° 0 mm 5 mps 722 mmHg 75%
19:00 +5°C° 0 mm 5 mps 722 mmHg 75%
20:00 +5°C° 0 mm 5 mps 722 mmHg 74%
21:00 +5°C° 0 mm 5 mps 722 mmHg 73%
22:00 +4°C° 0 mm 6 mps 722 mmHg 72%
23:00 +4°C° 0 mm 6 mps 721 mmHg 72%

6 Diciembre, Domingo

Tiempo Temperatura Precipitaciones Viento Presión Humedad
00:00 +4°C° 0 mm 6 mps 721 mmHg 72%
01:00 +5°C° 0 mm 6 mps 721 mmHg 72%
02:00 +5°C° 0 mm 7 mps 721 mmHg 71%
03:00 +5°C° 0 mm 7 mps 721 mmHg 71%
04:00 +5°C° 0 mm 8 mps 720 mmHg 70%
05:00 +5°C° 0 mm 8 mps 720 mmHg 71%
06:00 +5°C° 0 mm 7 mps 720 mmHg 72%
07:00 +5°C° 0 mm 7 mps 720 mmHg 73%
08:00 +6°C° 0 mm 8 mps 720 mmHg 72%
09:00 +7°C° 0 mm 8 mps 720 mmHg 71%
10:00 +7°C° 0 mm 8 mps 720 mmHg 70%
11:00 +9°C° 0 mm 8 mps 720 mmHg 68%
12:00 +8°C° 0 mm 9 mps 720 mmHg 66%
13:00 +10°C° 0 mm 9 mps 719 mmHg 63%
14:00 +9°C° 0 mm 8 mps 720 mmHg 68%
15:00 +9°C° 0 mm 8 mps 720 mmHg 72%
16:00 +8°C° 0 mm 7 mps 720 mmHg 76%
17:00 +8°C° 0 mm 6 mps 721 mmHg 79%
18:00 +7°C° 0 mm 5 mps 721 mmHg 81%
19:00 +7°C° 0 mm 4 mps 722 mmHg 83%
20:00 +8°C° 0 mm 3 mps 722 mmHg 85%
21:00 +7°C° 0 mm 2 mps 723 mmHg 86%
22:00 +6°C° 0 mm 2 mps 723 mmHg 87%
23:00 +6°C° 0 mm 2 mps 724 mmHg 87%
Mostrar más

Necesitamos Su Consentimiento

Meteoprog y nuestros Proveedores de Servicios pueden almacenar y acceder a sus datos personales como cookies, identificadores de dispositivo u otras tecnologías similares de su dispositivo y procesar dichos datos para personalizar contenido y anuncios, además de ofrecer funciones de redes sociales y analizar el tráfico.

  • Almacenar y/o acceder a información en su dispositivo

    Se puede almacenar o acceder a cookies, identificadores de dispositivo u otra información de su dispositivo para los fines anteriormente indicados.

  • Anuncios y contenido personalizados, medición de anuncios y contenido, percepciones del público, y desarrollo de productos

    Los anuncios y el contenido pueden personalizarse en base a su perfil. Se pueden añadir más datos para personalizar mejor los anuncios y contenidos. Se puede medir el rendimiento de los anuncios y contenidos. Se puede obtener la percepción sobre el público que ha visto los anuncios y contenidos. Dichos datos pueden usarse para desarrollar o mejorar la experiencia del usuario, sistemas y software.

Al hacer clic en ‘Estoy De Acuerdo’ usted permitirá el uso de las cookies, identificadores de dispositivo, balizas web u otras tecnologías similares indicadas. Su configuración puede cambiarse desde el navegador de su dispositivo.

Para ciertos fines, los intereses legítimos pueden ser considerados por encima del consentimiento. Puede leer más sobre ello en nuestra Política de Privacidad y Cookies.